Flag for U.S.A. Weather past 2 weeks in Atlanta, Georgia, U.S.A.

Now
60 °F

Sunny.


Feels Like: 60 °F
Forecast: 35 / 60 °F
Wind: 9 mph from Southeast

Location: Fulton County Airport-Brown Field


UV Index: 7 (High)

Visibility: 10 mi


Pressure: 30.22 "Hg

Humidity: 27%

Dew point: 26 °F

Location of AtlantaLocation

Historic Weather in Atlanta

°F

Atlanta temperature yesterday

Maximum temperature yesterday: 64 °F (at 12:53 AM)
Minimum temperature yesterday: 39 °F (at 11:53 PM)
Average temperature yesterday: 51 °F

Past Weeks' High & Low Weather Summary

 TemperatureHumidityPressure
High82 °F (Apr 1, 3:53 PM)100% (Apr 7, 4:04 AM)30.31 "Hg (Apr 7, 4:04 AM)
Low33 °F (Apr 16, 5:53 AM)10% (Apr 1, 3:53 PM)29.64 "Hg (Apr 7, 4:53 PM)
Average60 °F63%30.01 "Hg
* Reported Apr 1 3:53 PM — Apr 16 3:53 PM, Atlanta, Weather by CustomWeather, © 2014

Note: Actual official high and low records may vary slightly from our data, if they occured in-between our weather recording intervals... More about our weather records

Advertising

Historic Weather Conditions — Data for Previous 24 hours

 ConditionsComfort  
Time TempWeatherWind HumidityBarometerVisibility
3:53 PM
Apr 16
60 °FSunny.No wind27%30.23 "Hg10 mi
2:53 PM58 °FSunny.9 mph27%30.25 "Hg10 mi
1:53 PM57 °FSunny.10 mph27%30.26 "Hg10 mi
12:53 PM54 °FSunny.8 mph30%30.29 "Hg10 mi
11:53 AM50 °FSunny.14 mph35%30.31 "Hg10 mi
10:53 AM48 °FSunny.9 mph39%30.30 "Hg10 mi
9:53 AM44 °FSunny.9 mph49%30.28 "Hg10 mi
8:53 AM39 °FSunny.6 mph65%30.27 "Hg10 mi
7:53 AM33 °FClear.No wind82%30.26 "Hg10 mi
6:53 AM34 °FClear.No wind73%30.23 "Hg10 mi
5:53 AM33 °FClear.No wind75%30.20 "Hg10 mi
4:53 AM34 °FClear.No wind73%30.18 "Hg10 mi
3:53 AM35 °FClear.No wind70%30.17 "Hg10 mi
2:53 AM36 °FClear.3 mph67%30.15 "Hg10 mi
1:53 AM37 °FClear.No wind65%30.14 "Hg10 mi
12:53 AM38 °FClear.7 mph63%30.14 "Hg10 mi
11:53 PM
Apr 15
39 °FClear.6 mph57%30.13 "Hg10 mi
10:53 PM40 °FClear.7 mph55%30.10 "Hg10 mi
9:53 PM41 °FClear.7 mph53%30.07 "Hg10 mi
8:53 PM42 °FSunny.14 mph51%30.01 "Hg10 mi
6:53 PM47 °FPartly sunny.13 mph52%30.01 "Hg10 mi
Weather by CustomWeather, © 2014

See weather overview